Wind_Speed
11 12 12 12 13 13 14 14 13 12 13 14 12 10 11 15 17 15 11 11 14 15 13 12 12 11 10 10 9 9 8 8 7 7 7 7 6 6 6 6 6 6 6 5 5 5 5 5 6 5 5 6 6 5 6 6 5 5 5 4 4 3 2 4 7 7 5 4 4 4 3 2 3 4 4 3 3 3 3 3 4 4 3 4 8
8 8 9 10 10 11 12 13 12 12 14 14 13 11 11 13 14 13 11 10 11 13 13 13 13 12 11 10 10 9 8 8 7 7 7 7 7 6 5 5 5 5 5 4 4 4 4 4 4 4 4 4 4 4 4 4 4 5 5 4 5 4 4 5 6 7 6 5 4 4 3 1 2 3 3 3 2 2 2 2 3 3 4 4 4
7 7 7 8 9 10 10 11 12 12 13 14 14 12 11 11 13 13 12 11 10 11 12 13 13 13 12 11 10 10 8 8 7 6 6 6 6 6 5 5 4 4 4 4 4 4 3 3 3 2 2 3 2 3 3 2 2 4 4 4 5 5 4 4 4 5 6 6 5 4 4 2 1 2 1 1 2 2 2 2 3 2 4 6 4
6 6 5 6 8 9 10 10 11 12 13 13 14 14 12 11 12 12 12 12 11 11 11 12 12 12 12 11 11 10 8 7 6 6 5 5 5 6 5 5 4 3 3 3 3 3 2 2 2 2 1 1 1 1 2 2 2 3 3 3 4 4 3 2 2 3 5 6 5 4 4 3 2 1 1 1 1 2 3 3 4 3 4 6 4
5 4 4 6 8 9 9 10 10 12 12 11 12 15 14 12 12 12 11 11 11 11 11 11 11 11 11 10 10 9 8 7 6 5 5 5 5 5 5 4 4 3 3 3 3 3 2 2 2 2 1 1 1 1 1 1 1 2 2 2 3 3 2 1 1 2 4 5 5 4 3 3 2 1 2 3 3 4 4 5 5 4 4 6 5
2 3 5 8 9 9 9 9 9 10 11 10 11 13 14 13 12 12 12 12 12 12 11 11 11 11 10 10 10 10 9 7 7 6 5 5 5 5 5 4 4 4 4 4 4 4 4 4 3 3 3 3 3 2 1 1 0 1 0 0 1 2 2 1 2 2 3 4 5 5 4 3 2 2 1 3 4 4 5 7 7 5 5 8 7
3 4 6 7 8 9 9 9 8 9 10 9 9 11 12 12 12 12 13 13 13 12 12 12 11 10 10 10 10 10 9 8 7 7 7 7 7 6 5 5 5 5 5 6 6 6 6 6 6 6 6 6 4 3 3 2 1 2 1 1 3 2 3 3 3 4 4 4 4 4 3 3 2 2 1 2 3 3 5 9 9 7 7 9 9
5 6 6 6 7 8 9 9 9 10 10 8 8 9 11 12 13 12 12 13 13 13 12 12 12 11 10 10 9 9 9 8 7 8 8 8 8 7 6 6 7 7 7 7 7 8 8 8 8 8 8 9 8 7 7 6 6 7 7 6 6 5 4 4 4 5 5 4 4 4 4 4 3 3 4 4 4 5 6 8 10 9 9 10 11
4 5 6 6 7 7 8 9 10 11 11 9 9 10 13 15 14 13 12 12 12 11 11 11 11 11 10 9 9 9 8 8 9 9 9 8 8 7 7 7 8 8 7 7 7 7 8 8 9 10 10 11 11 10 10 10 9 8 8 9 9 8 6 6 6 6 6 6 7 6 6 8 7 5 6 6 5 6 7 7 9 10 10 12 12
4 4 4 4 4 5 7 7 8 10 11 10 10 12 15 15 13 13 13 12 10 10 11 11 10 10 9 9 9 9 9 10 11 11 10 9 8 7 7 7 7 7 7 7 7 7 7 7 8 10 11 11 12 12 13 13 11 10 9 9 9 8 8 7 7 7 6 7 9 8 9 11 7 4 4 4 3 5 6 8 9 11 11 12 13
5 4 4 4 4 4 5 5 6 8 9 10 11 13 13 13 12 12 12 11 10 11 10 10 10 10 9 9 9 8 8 10 11 10 10 11 10 8 7 7 7 7 7 7 6 6 6 6 6 8 9 9 11 12 14 16 16 14 14 13 11 10 9 9 8 8 8 9 9 8 10 10 6 3 4 3 3 5 7 8 10 10 10 11 13
5 4 4 4 3 3 3 4 5 5 6 7 8 10 10 10 10 10 10 10 9 9 9 9 9 8 8 8 8 7 7 9 9 8 8 9 10 9 7 7 7 6 6 6 6 5 5 5 6 7 7 6 7 9 11 13 15 16 17 17 16 15 14 12 10 8 7 7 7 7 6 6 4 3 3 2 4 7 8 9 9 9 11 11 12
5 4 4 3 2 2 2 3 4 4 5 5 7 7 8 8 9 9 9 9 8 7 7 8 9 9 8 8 7 6 6 7 7 6 6 6 7 7 6 5 5 5 5 5 5 4 4 4 4 5 5 4 5 7 8 9 11 14 17 19 19 19 17 16 15 12 8 5 6 5 3 2 3 2 2 4 7 8 9 10 10 11 12 13 13
7 6 5 4 3 2 2 2 2 3 3 4 6 7 8 8 8 8 8 8 9 8 8 9 9 8 7 6 5 4 5 6 6 6 6 6 7 7 6 4 4 4 3 3 3 3 2 2 2 2 3 3 4 5 6 7 8 10 15 19 19 18 17 14 13 12 9 6 4 3 2 2 2 3 6 9 9 8 9 11 12 12 14 15 17
8 7 6 5 4 3 3 2 2 2 3 4 5 7 8 8 8 9 9 9 10 9 8 8 8 8 9 9 7 7 7 8 8 7 7 6 6 6 5 4 4 3 4 4 3 3 2 1 2 3 2 3 5 5 6 7 7 8 11 13 12 12 13 12 10 9 7 5 3 3 4 5 6 7 8 8 7 7 9 12 13 14 15 16 16
6 6 6 6 5 4 3 2 2 3 3 5 5 6 8 8 9 9 9 9 9 8 8 9 10 11 11 11 10 9 8 7 6 6 6 6 5 5 4 5 4 4 4 4 3 3 2 1 1 2 1 2 5 6 5 6 7 7 10 11 10 11 14 15 13 10 8 6 5 6 7 8 9 10 10 9 9 9 10 12 13 13 13 14 15
5 4 5 5 5 4 3 1 1 3 4 5 6 6 7 8 9 9 10 10 11 12 12 12 12 12 11 10 10 9 8 6 6 5 5 5 5 4 4 5 4 4 4 4 3 4 4 3 1 0 0 2 5 5 3 5 7 8 10 11 10 9 11 13 11 9 8 7 7 8 9 10 11 12 13 14 14 13 11 12 12 12 13 15 15
5 5 5 4 4 3 3 2 0 2 3 4 5 6 8 8 8 9 10 11 12 13 13 12 11 11 10 10 10 9 9 8 7 6 5 5 5 5 4 4 4 4 4 4 4 3 4 4 3 1 1 2 3 2 3 5 6 7 9 10 9 7 8 8 7 6 7 7 8 10 10 11 13 14 15 15 15 14 12 12 12 13 14 15 15
6 6 6 5 4 3 3 3 2 2 2 2 3 5 7 9 9 10 10 11 12 12 12 12 11 11 10 10 10 10 9 9 9 8 7 7 7 5 3 4 5 4 4 5 5 4 3 3 4 3 2 1 2 2 5 6 5 6 7 7 7 7 6 6 5 4 6 8 9 10 11 12 13 15 15 15 15 13 12 13 13 13 14 15 15
7 6 6 6 5 4 4 4 4 4 3 2 2 4 6 8 10 12 11 11 12 12 12 12 12 12 12 12 12 10 9 9 9 8 7 7 7 6 4 4 5 5 5 6 6 6 6 4 4 4 3 3 3 4 6 8 6 4 4 4 5 5 4 3 4 5 6 7 8 9 10 11 11 11 11 12 13 13 12 12 12 12 14 15 15
7 7 6 6 5 5 5 5 5 5 5 4 4 5 6 8 10 13 13 13 14 14 14 13 13 13 14 13 12 11 11 10 8 7 7 6 7 6 4 3 5 6 6 6 6 6 7 7 6 6 5 4 4 4 5 7 6 4 3 2 3 3 2 3 5 6 6 6 7 9 9 10 10 10 10 10 11 11 11 12 13 14 16 17 18
7 7 6 6 6 5 5 5 5 5 5 6 6 6 7 9 10 13 14 14 15 16 15 14 13 14 15 16 15 14 13 11 9 9 8 8 8 8 6 6 6 6 5 5 5 6 8 8 8 8 7 6 6 5 4 4 3 2 2 2 4 4 3 2 3 5 6 7 8 9 10 10 10 10 10 10 10 10 11 13 15 17 18 19 20
8 8 8 7 7 6 5 5 4 4 4 6 7 8 8 9 10 13 14 14 16 16 15 14 14 14 15 15 16 16 15 12 11 12 11 10 10 10 9 8 8 6 5 5 6 7 9 10 10 9 8 7 6 5 4 2 1 2 2 3 3 3 2 2 4 5 6 8 9 10 10 10 10 10 9 9 10 10 12 15 17 18 19 19 20
9 9 9 9 8 8 7 6 5 4 4 5 6 7 9 9 10 13 14 15 17 17 15 15 15 16 16 14 14 16 15 14 14 15 14 13 12 11 10 9 9 7 5 5 8 9 9 10 11 10 9 7 6 5 3 2 1 1 1 2 3 3 1 3 5 6 7 8 9 9 9 9 9 9 9 9 11 14 16 17 18 18 18 19 19
10 10 10 10 10 9 9 9 8 7 6 5 5 7 8 9 11 13 14 16 18 17 16 17 17 16 16 15 14 15 15 14 15 17 15 14 13 12 10 10 10 10 9 8 10 11 10 10 10 10 8 6 4 4 3 2 1 1 2 3 3 2 2 4 5 6 7 8 8 8 9 9 8 9 10 11 14 16 17 18 18 17 17 18 19
11 11 12 12 11 10 10 11 11 10 9 8 8 8 7 8 11 13 14 16 18 18 18 18 18 17 16 15 13 16 17 15 15 18 17 15 14 13 12 11 12 12 12 11 11 11 10 10 11 10 8 6 6 5 3 2 3 3 4 4 2 1 3 4 5 6 7 7 7 8 8 8 9 10 12 13 14 15 15 15 15 15 15 16 17
13 13 13 13 12 12 12 12 12 11 11 12 12 11 10 9 10 11 13 15 17 19 19 18 18 17 14 13 14 15 17 15 15 17 18 16 15 15 14 13 13 13 13 12 12 13 13 12 11 9 7 7 6 4 2 3 3 3 3 2 1 2 3 4 5 5 6 6 7 8 9 10 11 12 13 13 13 14 13 13 14 14 14 15 16
14 14 14 14 14 15 15 14 14 14 14 15 15 14 13 12 11 11 12 12 13 16 16 17 20 18 13 14 19 18 16 16 15 16 17 16 15 15 15 16 14 13 13 14 15 16 15 12 10 8 6 5 4 3 2 2 2 1 1 2 2 2 4 5 4 4 5 7 8 9 11 12 12 13 13 13 13 13 13 13 14 15 15 15 16
16 17 17 17 17 16 16 16 16 16 16 16 16 16 15 15 13 11 11 10 10 12 11 13 16 14 12 18 22 19 15 14 15 17 18 17 17 16 16 16 14 14 16 17 17 16 14 11 9 8 7 5 5 4 3 2 1 1 1 2 2 2 3 4 4 5 6 8 9 10 11 11 12 13 13 14 14 14 14 14 14 15 15 15 16
18 18 18 18 18 18 18 18 17 16 16 15 16 16 17 17 18 16 14 13 14 14 13 12 12 9 10 14 15 13 12 13 15 18 19 18 18 18 17 17 17 17 18 18 16 14 13 11 9 8 7 6 5 4 3 1 1 1 0 1 1 2 3 4 4 5 7 8 9 10 11 12 13 13 13 14 15 15 15 14 14 15 15 15 16
20 20 19 19 19 20 21 22 21 20 19 18 16 16 16 17 18 19 19 19 20 18 16 15 14 11 12 11 8 8 11 12 12 15 18 19 19 18 18 19 19 18 18 17 15 12 11 10 9 8 7 5 4 3 2 1 1 0 0 1 1 2 3 3 4 6 8 9 10 10 11 11 12 13 14 14 15 15 15 14 14 15 15 16 17
20 20 20 20 21 21 22 23 23 22 22 21 19 19 19 17 16 17 17 19 21 21 19 17 14 12 13 12 10 9 11 11 9 10 15 19 21 19 19 19 18 17 18 16 13 11 11 10 9 8 7 5 4 3 2 2 1 0 0 1 2 2 3 4 5 6 8 9 10 11 11 11 12 13 14 14 14 15 15 15 14 15 16 16 17
17 18 19 19 20 20 21 22 22 22 22 22 22 22 22 21 18 15 14 15 18 21 22 21 17 13 11 11 10 9 11 11 9 8 14 20 21 20 19 18 17 19 19 14 10 10 10 9 8 7 6 5 5 4 3 3 2 1 1 2 3 3 4 5 6 6 8 10 10 11 11 11 12 14 15 14 14 15 15 15 15 15 16 16 17
16 18 18 18 19 19 20 21 22 22 22 22 22 21 22 22 21 18 15 13 14 17 20 23 22 18 15 14 12 10 11 11 8 8 14 21 21 20 20 20 20 20 17 11 9 10 11 9 8 7 6 5 5 5 4 3 2 1 1 2 3 4 5 6 6 6 8 10 10 11 11 12 13 14 15 15 15 15 15 15 16 16 16 16 17
17 18 19 20 20 20 20 21 22 23 22 22 21 20 20 20 20 21 19 16 13 13 16 19 22 21 19 17 16 14 14 14 12 13 18 22 22 22 22 21 20 18 14 10 9 10 10 9 8 7 6 6 6 5 4 3 2 0 1 3 4 5 6 6 6 7 9 11 11 11 12 13 13 14 15 16 16 16 16 16 16 16 16 17 17
16 17 18 19 19 19 20 21 21 22 22 22 21 20 18 17 17 18 19 19 17 15 12 12 15 19 19 17 16 16 15 14 15 17 21 24 24 22 19 16 14 13 11 10 10 10 9 9 8 7 7 7 6 5 4 3 1 0 2 3 4 5 6 6 7 7 9 10 11 12 12 12 13 15 15 16 17 17 17 16 17 17 17 17 17
15 15 15 16 16 17 19 20 21 22 22 21 20 19 18 17 15 14 15 16 16 17 15 9 10 12 12 12 13 14 12 11 13 17 22 25 24 20 15 13 12 11 9 9 10 9 8 8 8 7 7 7 6 5 4 2 1 0 2 4 5 5 6 7 7 8 9 10 12 12 12 13 14 15 16 16 17 17 17 17 17 18 18 18 18
13 13 13 15 15 16 17 18 20 22 24 24 21 19 18 17 15 13 13 13 13 15 16 13 10 10 11 12 13 14 14 15 16 20 24 25 21 17 14 14 14 12 10 9 9 9 8 8 7 7 7 7 5 4 3 1 0 1 3 4 5 5 7 7 6 7 9 11 12 13 13 14 15 15 16 16 17 17 16 17 17 17 18 18 17
11 11 12 14 14 13 14 14 15 18 20 21 21 19 18 17 15 12 11 12 13 14 14 15 15 12 13 16 17 17 18 19 20 22 24 22 18 15 14 14 14 14 12 10 9 8 7 8 7 7 7 6 5 4 2 1 1 2 4 5 5 6 6 6 6 7 9 11 12 13 13 14 15 16 15 16 16 16 16 16 16 17 17 17 16
10 10 11 12 12 11 11 11 11 11 11 12 15 16 17 16 15 13 11 11 12 13 14 15 15 12 12 18 21 20 19 19 20 22 22 19 17 15 15 14 14 14 12 10 9 8 7 8 8 7 6 5 4 3 2 1 2 3 4 5 5 6 6 6 6 7 8 9 11 13 14 14 15 15 15 15 15 15 16 17 17 17 17 17 17
10 10 10 12 12 11 10 9 9 7 5 4 7 10 12 12 12 11 10 11 12 12 13 13 12 9 11 17 20 19 17 17 18 20 20 19 17 15 14 14 14 14 12 10 8 7 7 8 8 7 6 5 4 3 2 2 3 4 4 5 6 6 6 6 6 7 8 9 11 12 13 14 14 14 14 15 15 15 16 16 16 17 17 17 17
11 11 11 12 12 12 11 10 9 7 4 1 1 4 8 9 10 11 11 12 12 10 9 9 8 8 11 17 20 18 16 17 18 18 17 16 16 15 15 15 15 14 11 9 8 7 8 8 8 7 6 5 4 3 2 3 4 4 5 5 5 6 6 6 6 7 8 8 9 11 12 13 13 13 14 15 16 16 16 16 16 17 17 17 16
11 12 12 12 12 12 12 12 10 9 7 6 3 3 5 7 9 8 8 7 7 8 9 9 10 12 15 18 19 18 18 20 21 19 16 15 15 15 15 15 14 12 10 8 8 8 8 8 7 6 5 5 4 3 3 4 4 5 5 5 5 6 6 6 6 7 8 9 10 11 12 12 13 13 15 16 16 16 16 17 17 17 17 16 15
13 13 13 13 12 12 13 12 12 11 10 10 9 7 6 6 7 7 7 8 9 10 11 11 14 17 18 18 17 17 18 19 20 19 17 16 15 15 14 14 13 11 9 8 8 7 8 8 7 6 6 5 4 3 4 4 4 4 4 5 5 6 6 7 7 8 9 11 11 11 11 12 13 14 15 15 15 16 17 17 17 17 17 16 15
14 14 14 14 14 14 13 13 13 13 13 13 13 12 11 10 10 11 11 12 12 13 14 15 16 18 17 16 16 17 17 17 18 19 17 16 15 15 15 15 13 10 9 8 8 8 8 7 6 6 5 4 3 3 4 3 3 4 5 6 7 6 7 8 9 9 10 11 12 11 11 12 13 13 14 15 16 16 17 17 17 18 17 16 15
12 13 14 15 15 16 15 14 14 14 14 14 15 15 15 15 14 14 15 15 15 15 15 15 15 16 16 15 15 16 17 17 18 17 16 15 15 14 14 14 11 9 8 8 8 9 9 8 6 5 4 3 3 3 3 3 3 4 6 7 8 8 9 10 11 10 11 12 12 11 12 13 13 13 14 15 16 17 17 17 17 17 17 16 15
11 12 12 13 14 14 15 16 16 16 17 17 17 17 17 17 17 17 18 19 19 18 18 17 17 18 18 17 17 17 17 18 18 18 17 17 16 14 13 12 11 9 9 9 8 8 8 7 5 4 3 2 2 3 3 3 3 4 5 6 7 9 10 10 11 11 11 12 13 13 13 13 13 13 15 16 17 17 17 17 17 16 16 15 15
10 11 11 11 12 12 13 14 16 16 17 17 17 17 17 16 16 16 16 17 17 18 18 17 18 19 19 19 18 18 18 19 20 20 18 17 15 14 13 12 10 9 9 8 8 8 7 6 4 3 2 2 2 2 3 3 4 5 5 5 7 9 9 10 10 11 11 11 13 14 14 13 13 14 16 17 17 17 17 17 16 16 15 15 15
9 10 11 11 11 11 11 12 13 13 14 14 15 15 15 14 14 14 13 14 14 14 14 14 15 16 18 18 18 19 19 19 18 16 14 13 12 12 12 12 11 9 8 7 7 6 6 5 4 2 2 2 1 2 4 4 6 7 7 7 8 9 9 10 10 10 10 10 12 13 12 11 12 14 16 17 17 16 16 16 16 15 15 15 15
9 9 10 11 11 11 11 11 11 12 12 12 12 13 13 13 13 12 12 12 12 13 13 14 15 16 17 16 16 16 16 15 13 12 11 10 9 8 8 10 10 9 7 6 5 4 3 3 2 1 1 1 2 3 4 5 6 7 8 8 8 8 8 9 10 10 9 9 10 11 11 11 12 14 15 16 16 16 16 16 16 15 15 15 14
8 8 9 9 10 10 11 11 11 11 11 11 11 12 12 12 12 11 11 12 12 12 12 13 14 14 14 13 13 13 12 11 11 10 9 8 7 7 6 6 7 6 6 5 4 3 3 2 2 1 1 2 3 3 4 6 7 8 7 8 7 7 7 8 9 10 9 8 9 10 11 11 13 13 13 15 16 16 16 15 15 15 15 14 14
Wind_Direction
184 197 202 205 209 207 207 203 190 178 177 180 183 180 171 163 159 161 169 165 155 151 149 148 145 140 140 138 135 132 128 124 122 117 114 111 108 106 106 104 99 98 99 95 91 87 84 85 82 76 74 77 81 79 75 74 70 75 82 90 100 103 95 104 115 122 122 122 126 118 111 106 81 72 75 67 53 55 60 50 38 39 19 321 322
160 177 192 200 204 203 203 198 189 181 180 182 185 180 173 171 168 167 171 169 161 155 152 149 146 144 143 141 141 139 135 134 132 130 127 122 118 112 110 108 104 105 108 106 103 99 91 92 90 88 88 90 94 93 90 87 87 90 89 94 103 105 109 121 128 134 137 145 149 133 116 109 85 80 77 67 53 29 33 32 20 20 13 356 317
152 157 175 192 197 195 197 195 189 184 182 185 186 183 179 177 175 172 170 165 160 159 157 153 151 149 147 145 144 142 140 141 140 140 139 136 132 128 122 121 117 116 121 118 115 112 108 107 101 97 102 110 108 100 101 97 91 100 98 97 110 110 107 117 130 139 142 150 164 157 130 124 103 91 88 55 32 360 340 346 355 357 354 358 337
145 151 171 194 198 194 193 191 188 187 188 189 188 186 186 185 182 177 171 165 163 163 162 160 159 156 153 152 149 147 147 147 147 148 149 146 143 138 137 139 137 134 132 131 135 138 140 140 132 133 143 144 142 132 130 128 110 116 120 118 119 114 111 117 129 145 147 149 159 160 144 150 151 79 336 292 299 325 327 318 317 319 333 342 331
148 167 199 202 198 196 192 188 188 189 190 193 191 190 191 192 190 185 177 172 170 170 169 170 169 166 165 162 158 157 158 158 159 162 162 160 155 149 151 157 161 163 165 173 181 176 176 188 180 174 196 205 199 187 150 149 141 133 146 149 137 120 108 136 138 149 159 156 157 162 166 173 166 119 347 340 328 318 329 325 307 300 318 329 320
166 225 228 208 198 196 190 184 185 190 195 200 200 197 197 198 197 191 186 182 178 179 181 180 181 183 181 176 174 172 170 170 174 177 178 175 170 165 166 176 190 194 196 205 208 205 207 210 204 202 212 219 220 208 172 148 41 72 63 340 146 140 146 177 170 178 188 174 169 175 180 195 209 205 253 345 333 321 337 338 322 308 318 326 321
194 214 216 207 202 201 198 192 187 190 197 203 206 206 204 205 204 198 194 191 188 190 192 190 191 192 189 186 183 179 177 182 188 192 194 192 188 186 187 198 214 220 221 225 224 223 224 219 212 211 213 215 216 210 199 192 217 214 190 281 280 226 199 204 196 199 206 201 208 212 196 196 237 260 282 321 307 307 343 342 332 326 324 323 318
181 186 194 199 201 203 204 206 205 204 205 210 217 222 221 216 212 206 198 195 196 197 195 194 194 192 190 190 188 185 186 192 197 200 205 207 205 204 208 215 222 224 226 230 230 229 230 226 222 218 215 216 215 216 224 220 218 224 216 216 236 238 227 225 219 220 225 231 252 257 246 247 260 280 300 313 313 322 342 337 326 323 324 322 317
158 171 187 196 202 203 203 208 213 210 209 212 219 228 229 221 212 205 198 195 198 197 195 198 201 200 197 195 195 195 192 192 197 201 206 211 213 211 213 217 220 221 224 227 226 229 233 231 226 224 227 236 234 228 234 233 221 221 218 211 215 223 229 235 235 238 242 254 265 265 266 276 280 282 292 306 320 325 327 322 316 317 318 319 318
125 147 163 166 181 193 194 201 207 205 202 205 211 219 221 214 205 201 200 203 208 209 206 205 208 212 209 201 199 199 197 202 212 217 215 214 214 209 206 208 208 211 218 224 226 229 234 231 230 235 240 247 244 234 237 243 238 224 215 215 221 222 226 236 242 244 249 263 270 269 277 287 292 290 289 300 312 313 317 315 311 313 313 315 321
102 110 113 115 131 159 175 186 198 202 201 200 203 210 212 207 202 202 203 208 211 210 209 207 209 215 213 208 206 203 206 220 231 233 227 225 222 213 206 205 205 207 213 223 228 228 229 227 229 242 249 249 245 238 236 242 243 235 225 225 230 227 226 234 241 246 255 264 270 271 277 284 288 283 287 297 305 310 319 313 302 305 311 311 316
101 101 102 109 123 141 164 181 194 201 204 205 203 205 208 206 205 204 203 207 206 203 203 202 205 210 213 215 213 208 217 232 237 233 230 232 225 211 205 203 198 199 203 212 220 221 222 222 217 227 242 252 248 241 238 238 239 237 233 231 233 230 229 232 236 244 258 267 271 268 273 288 295 287 286 313 326 320 314 306 298 301 305 304 304
92 96 106 114 120 146 178 195 207 211 216 218 212 210 213 213 210 204 200 202 201 201 207 209 211 215 219 220 212 203 211 218 218 213 213 217 208 192 190 193 189 195 202 205 217 220 222 231 227 221 234 250 239 233 242 246 240 236 233 231 232 233 233 232 233 239 247 262 272 262 255 294 304 288 289 309 319 319 309 304 304 303 300 298 297
86 87 92 96 102 119 142 163 192 209 215 211 207 210 213 211 206 200 199 206 207 209 217 219 216 210 199 188 173 165 174 170 165 173 179 179 177 174 176 184 189 198 202 201 212 217 220 247 263 252 251 255 238 232 246 252 246 238 232 228 228 232 232 229 231 238 241 245 260 254 234 264 274 268 288 299 306 307 299 297 300 299 296 293 290
83 81 81 81 83 91 104 122 146 168 186 191 197 206 206 206 208 205 208 216 218 217 219 209 194 176 159 151 149 149 150 144 143 152 156 158 165 169 175 189 196 196 193 189 194 203 210 240 273 285 289 269 253 248 246 242 238 232 222 215 210 210 212 212 212 219 221 219 225 236 250 264 268 268 277 290 297 293 290 290 290 289 289 289 288
75 72 71 67 63 64 76 102 138 164 182 189 195 199 197 200 206 204 203 206 203 198 193 180 167 157 150 151 154 154 152 150 150 155 158 162 169 173 185 198 203 201 199 191 187 195 194 194 259 289 299 266 268 266 243 223 220 210 194 187 181 186 201 208 209 211 219 231 246 256 266 273 276 276 278 283 286 288 291 288 285 282 283 287 290
54 52 51 47 43 42 46 70 151 180 193 195 196 194 191 192 193 190 188 187 181 176 172 166 158 154 152 152 150 145 144 149 156 163 172 178 178 185 201 205 201 202 198 182 173 191 199 200 217 322 97 265 283 280 230 195 198 195 184 178 174 177 197 210 214 222 238 255 267 270 274 277 278 280 283 285 286 288 289 286 286 288 288 289 291
29 22 15 10 12 15 16 17 344 210 206 197 188 185 186 184 182 180 178 175 171 167 164 160 157 156 155 152 146 138 131 128 129 136 154 170 177 185 195 191 185 190 180 158 145 169 198 204 193 172 236 274 280 265 183 160 175 187 180 179 182 177 182 199 213 236 258 271 276 277 278 281 283 285 286 285 285 282 277 277 285 290 286 284 288
16 8 359 347 338 337 337 339 337 296 243 219 194 187 185 182 178 177 178 176 173 171 168 166 163 159 156 152 148 142 134 131 128 128 135 145 153 165 180 172 169 180 178 156 135 134 163 191 192 191 215 220 178 160 145 141 161 187 182 188 207 201 178 177 195 237 267 278 284 288 291 291 291 290 286 282 284 285 276 271 276 282 282 283 287
4 357 352 345 339 337 326 321 323 315 306 302 264 223 206 195 185 183 186 187 183 178 176 173 168 164 164 160 157 153 148 143 137 134 135 133 133 148 178 178 168 175 179 166 150 137 132 141 159 159 145 141 142 138 142 144 144 157 171 190 209 198 181 200 240 259 273 282 288 291 290 285 279 277 272 269 277 285 278 267 268 276 283 286 286
347 342 341 341 344 349 344 334 319 302 296 297 285 258 233 219 206 197 195 194 188 183 182 182 177 174 172 170 167 166 165 161 155 149 146 140 138 149 169 175 170 174 176 174 168 148 130 129 138 133 119 120 124 125 143 152 146 140 156 190 213 215 223 265 280 285 284 280 280 280 278 274 268 266 264 262 266 270 269 267 272 279 282 284 284
330 327 325 325 331 340 344 345 333 306 291 284 277 263 246 235 224 214 210 205 195 189 187 187 184 181 181 181 181 180 176 174 175 172 166 164 159 157 163 171 173 174 173 174 170 146 134 138 143 138 134 136 135 132 139 151 159 182 229 245 253 266 275 269 281 286 280 274 278 279 278 278 276 273 273 274 272 271 272 276 281 283 281 279 278
313 312 310 310 314 314 318 328 330 318 304 289 275 261 251 242 232 225 221 213 204 199 197 194 190 187 188 189 189 189 186 183 185 182 178 176 170 163 167 171 167 165 172 175 163 142 141 154 159 152 151 152 147 144 143 153 209 267 268 263 281 306 309 267 269 280 281 280 282 282 280 281 283 282 283 286 287 288 287 285 285 284 282 279 276
301 299 296 296 296 296 298 300 300 300 302 295 279 262 251 244 236 229 223 218 213 210 208 206 200 196 197 196 191 189 187 188 193 191 184 179 174 168 167 165 161 161 164 157 151 148 154 166 167 161 161 164 162 161 165 173 200 253 283 314 344 359 318 269 274 280 283 283 282 283 286 288 290 290 291 295 296 294 291 290 287 284 282 281 279
289 286 283 282 283 284 285 284 282 283 284 282 275 261 249 242 237 230 224 222 220 217 215 214 210 208 213 211 197 187 186 188 193 195 189 182 179 176 172 171 170 165 157 156 165 172 176 176 171 166 167 164 153 150 148 129 98 20 10 20 25 10 297 290 293 291 290 290 289 292 294 295 295 295 296 299 298 294 292 291 289 286 285 284 282
280 278 277 276 275 275 275 274 272 269 269 270 267 259 249 243 238 234 230 228 226 225 225 224 222 225 231 231 209 186 182 185 191 194 193 190 188 186 181 180 180 176 173 177 181 178 174 169 167 167 163 148 136 138 133 82 44 24 24 36 44 327 312 313 306 297 295 297 299 300 302 304 306 307 307 304 299 296 296 295 293 291 290 289 288
276 275 274 273 273 271 270 268 265 262 263 263 258 252 248 244 239 236 235 233 233 235 234 233 235 234 234 242 235 204 183 182 187 189 190 191 191 191 188 184 183 181 177 174 170 167 167 166 167 167 160 154 155 155 121 66 53 39 29 27 8 324 330 334 322 297 289 298 306 306 308 310 310 309 307 303 299 297 297 296 294 293 293 293 291
273 273 272 271 270 268 266 263 261 261 261 256 250 247 245 242 240 238 238 237 238 239 237 234 236 234 223 232 238 220 194 190 189 183 184 186 183 182 185 185 180 169 162 160 161 166 168 163 159 161 159 158 163 159 134 122 114 82 4 341 319 303 318 330 326 297 291 306 312 306 304 306 306 306 305 301 299 299 298 295 293 292 293 293 291
273 271 270 269 268 266 265 262 260 259 259 253 249 247 244 241 241 240 238 240 243 248 250 243 238 235 226 229 233 224 208 204 199 191 191 191 186 181 181 179 170 164 169 171 166 161 159 157 160 167 169 171 177 178 168 161 161 133 46 355 325 309 320 319 310 307 314 317 311 304 303 304 304 304 304 301 299 299 298 295 293 292 292 292 290
274 272 270 268 266 266 266 266 264 261 260 257 255 253 249 246 248 248 246 246 248 252 258 255 244 233 226 230 236 234 223 214 208 207 206 200 193 188 182 175 172 176 182 179 166 156 158 165 172 176 178 183 187 184 175 170 184 180 95 357 328 327 330 315 307 319 323 315 307 304 303 303 303 304 305 304 302 301 300 297 294 292 291 291 290
273 273 271 270 270 269 268 267 267 265 263 261 260 259 256 253 255 256 255 255 255 255 258 257 252 241 229 227 238 244 230 213 208 214 212 201 194 191 186 182 185 187 184 173 161 160 168 173 174 176 179 183 180 171 169 164 156 167 320 326 313 322 325 317 317 320 316 310 309 307 303 302 304 305 306 305 303 301 301 299 296 294 293 292 293
274 274 273 272 272 270 267 267 267 266 264 262 261 260 260 259 257 255 253 254 255 254 253 254 254 250 238 228 224 232 234 224 215 218 213 202 196 192 187 187 188 184 176 168 163 169 175 174 173 172 172 171 167 160 154 147 136 127 312 321 328 329 327 320 315 314 315 314 311 307 305 305 305 305 305 305 303 303 303 302 300 297 295 293 292
277 278 278 277 275 272 267 265 265 264 262 260 259 258 258 258 257 252 246 244 247 248 249 249 248 246 243 231 216 219 234 233 225 220 212 203 196 189 183 181 179 173 169 167 171 172 169 167 167 166 164 164 160 152 146 145 138 120 360 341 337 333 330 322 310 307 317 319 312 307 307 307 307 308 308 307 305 305 304 302 300 298 295 293 291
273 273 274 274 274 273 269 265 263 262 261 260 260 259 257 256 256 256 250 240 234 236 239 242 242 240 238 232 219 220 236 239 233 221 209 200 195 188 177 170 169 169 166 168 175 169 160 159 162 161 158 157 152 147 148 146 138 126 341 338 337 335 332 326 316 314 322 323 317 312 311 310 310 312 312 310 308 306 303 300 298 295 293 292 291
275 274 273 271 270 270 269 266 264 262 260 258 257 257 257 256 255 255 254 250 246 239 233 231 232 232 233 230 223 225 235 238 232 222 210 200 191 182 169 161 162 167 166 169 174 167 159 157 159 157 155 152 149 149 148 143 141 103 344 342 338 334 331 328 324 322 325 325 322 317 314 313 313 314 313 311 307 303 299 297 294 291 289 289 289
282 280 279 276 272 269 267 266 264 262 260 258 254 250 250 251 251 251 250 249 249 251 243 221 212 218 225 227 223 223 227 227 220 212 204 194 183 172 162 156 158 164 166 168 167 162 156 153 153 154 153 149 148 150 147 145 162 261 345 335 330 333 333 332 331 331 330 330 328 324 319 317 316 316 313 310 306 302 300 297 293 289 287 287 288
284 282 282 280 279 276 272 268 265 262 260 260 258 252 245 242 244 247 249 247 244 245 242 219 184 190 201 205 208 209 205 201 201 196 189 182 172 161 154 150 149 155 164 166 160 154 150 149 149 151 149 146 147 150 145 147 185 318 335 325 324 329 327 325 331 335 333 332 331 329 325 321 319 317 314 310 308 305 303 301 297 293 293 293 292
288 286 286 287 287 284 278 274 271 267 260 254 251 248 243 239 236 236 242 249 249 244 237 224 206 193 178 172 184 187 173 166 171 172 171 170 163 154 149 147 146 154 165 165 158 152 148 145 145 146 145 144 146 146 145 152 254 329 332 324 320 321 321 322 328 332 331 332 334 334 329 325 322 320 315 312 310 309 307 306 304 302 301 300 296
304 302 302 302 300 295 288 284 281 276 265 252 243 237 235 235 230 223 228 241 246 241 231 224 222 211 175 160 168 169 160 157 160 161 162 165 163 159 157 155 157 164 165 158 153 149 142 139 141 142 141 141 142 142 138 113 334 329 328 326 324 323 326 332 336 336 335 338 340 338 332 327 323 320 316 314 313 311 308 305 302 301 301 300 296
330 327 328 328 326 320 312 305 300 293 275 251 235 226 223 222 217 213 219 232 235 232 227 222 219 204 167 162 169 166 157 156 160 160 161 162 160 159 159 158 157 156 151 144 144 144 140 140 143 141 139 139 138 134 114 27 340 329 328 328 326 325 327 332 337 339 340 342 343 338 332 327 322 320 318 316 311 305 301 298 297 298 300 299 297
351 349 347 348 348 345 338 332 330 325 301 250 224 216 213 209 201 201 213 226 227 224 220 211 201 178 159 166 170 163 154 155 158 156 154 151 146 145 146 143 139 136 133 135 140 142 141 142 144 143 142 141 135 120 84 21 348 339 336 333 330 329 330 332 337 337 338 343 344 337 329 323 319 315 313 310 304 300 300 301 304 306 305 301 299
3 2 1 1 5 8 5 359 355 356 357 351 205 197 196 193 190 196 215 228 224 210 192 178 165 150 154 161 159 148 139 140 140 137 134 130 129 129 129 127 128 130 133 137 142 142 141 143 145 146 141 128 109 85 51 20 1 352 345 338 335 335 335 336 337 334 335 341 340 331 323 320 315 309 306 305 305 306 307 308 309 311 308 304 302
13 12 12 13 17 21 23 21 19 22 31 42 66 135 167 173 178 189 208 215 192 164 151 144 131 126 136 146 145 136 130 130 131 128 122 120 122 123 121 122 126 130 131 135 139 139 139 143 149 147 130 109 89 70 50 32 19 5 351 343 342 344 344 343 336 330 334 338 335 328 324 319 313 309 308 309 310 312 312 312 314 314 311 308 306
25 24 24 24 24 26 31 34 37 42 48 56 67 81 102 123 134 137 134 133 133 132 132 127 118 116 121 128 130 125 121 123 126 127 124 121 121 122 124 128 129 128 127 131 133 133 138 147 149 135 115 100 81 66 58 46 32 19 3 357 355 351 347 344 336 332 336 339 335 328 323 316 311 311 313 313 314 315 316 318 320 319 315 312 311
30 30 32 33 31 32 35 38 44 50 55 60 65 70 74 86 100 109 112 114 114 113 113 113 114 117 121 122 118 113 112 116 121 124 125 124 123 127 135 138 133 126 126 128 124 126 135 143 139 122 108 93 66 50 46 38 29 25 24 24 17 359 348 346 343 339 339 339 334 327 320 315 312 312 313 314 315 317 319 321 322 321 319 317 316
34 33 35 38 37 37 40 42 46 52 55 58 63 65 67 73 82 92 98 103 104 104 106 108 111 113 114 111 107 108 115 123 125 125 126 126 125 128 134 134 126 121 124 126 128 135 143 142 134 122 111 93 58 40 34 22 12 12 17 20 15 5 357 354 350 346 344 341 335 327 320 315 311 311 313 315 318 320 322 322 322 322 322 321 320
40 38 37 40 41 43 45 47 49 55 58 61 64 67 68 70 74 80 86 92 95 97 98 100 103 106 109 111 114 120 128 135 137 136 135 132 129 126 126 125 122 122 121 118 121 134 142 142 138 129 110 86 57 40 35 25 10 7 6 2 359 0 1 357 353 352 348 342 336 332 327 321 314 311 314 318 322 324 325 325 325 326 326 325 325
44 45 44 42 42 46 50 50 52 56 60 62 65 69 71 72 72 73 76 78 80 84 88 92 97 104 110 115 122 128 133 137 140 139 136 133 131 128 124 123 124 123 121 121 127 134 141 146 149 133 96 84 62 27 20 16 8 6 2 350 346 352 357 358 356 354 348 342 340 340 336 325 313 310 315 321 326 328 328 329 330 331 330 328 329
47 51 54 52 49 50 51 51 53 56 59 62 66 68 71 72 72 72 72 71 71 73 78 83 89 99 107 114 122 127 128 129 130 129 126 124 127 129 132 134 133 125 118 124 133 139 148 158 159 138 98 91 57 7 359 360 358 354 350 344 341 344 352 357 357 353 349 345 343 343 340 327 312 312 320 328 331 332 332 333 334 334 333 332 333
54 57 59 58 58 56 55 55 56 57 59 63 67 70 72 73 72 70 72 73 73 73 77 82 88 95 102 108 114 118 119 119 120 121 121 122 123 125 136 142 137 125 117 119 120 119 131 146 145 125 105 76 26 359 348 346 344 340 338 338 337 339 347 355 355 353 351 346 343 346 348 335 319 317 326 333 335 336 337 338 338 338 337 338 339
58 60 58 59 60 60 59 60 61 61 62 65 68 70 72 74 74 75 77 80 82 84 88 91 94 97 101 104 108 110 113 115 116 116 118 121 120 118 124 132 131 122 118 119 119 115 117 120 109 91 75 38 10 357 348 341 337 335 334 333 333 336 344 351 355 356 353 344 343 349 347 331 319 321 329 335 338 340 340 340 340 341 341 343 344
Height
809 812 813 815 816 817 819 820 822 824 825 827 829 830 830 830 831 833 835 837 837 838 839 840 841 842 843 845 846 847 847 848 849 849 850 850 850 851 851 851 851 852 852 852 852 853 853 853 853 853 853 853 853 854 854 854 854 854 854 854 855 856 856 856 858 861 864 865 865 865 865 865 866 866 866 865 864 864 863 863 862 862 862 860 859
808 811 813 814 816 817 819 820 822 824 825 827 828 829 830 830 831 833 834 836 837 838 839 839 840 841 842 844 845 846 847 848 848 849 849 850 850 851 851 852 852 852 852 852 853 853 854 854 854 854 854 854 854 854 855 855 855 855 855 855 856 857 857 857 859 861 863 865 865 865 865 865 865 865 865 865 865 864 864 863 862 862 862 861 859
809 810 812 814 815 817 819 820 821 823 824 826 827 828 830 830 831 832 834 835 836 838 838 839 839 840 841 843 844 845 846 847 848 848 849 849 850 850 851 852 852 852 853 853 853 853 854 854 855 855 855 855 855 855 855 856 855 856 857 857 857 858 858 858 859 860 862 864 864 865 865 865 865 865 865 865 864 864 863 863 862 862 861 860 859
809 810 812 814 815 816 818 819 820 822 823 825 826 827 829 830 831 832 833 834 836 837 838 838 839 840 840 841 842 844 845 846 847 848 848 849 849 850 851 851 852 852 853 853 853 854 854 854 855 855 856 856 856 856 856 857 857 857 858 858 858 859 859 859 859 860 861 862 863 864 864 865 865 865 865 864 863 863 863 862 861 861 860 859 859
809 810 812 813 815 816 817 818 819 820 822 824 825 826 827 829 831 832 833 834 835 836 837 838 838 839 840 840 841 842 843 844 846 846 847 848 848 849 850 850 851 852 852 853 853 853 854 854 855 855 856 856 856 857 857 857 858 858 858 858 859 860 860 860 860 860 860 861 862 863 864 864 864 864 864 863 863 862 862 861 860 860 859 858 858
808 810 811 812 814 815 816 817 818 820 821 823 824 825 826 828 830 831 832 833 834 835 836 837 837 838 839 839 840 841 842 843 844 845 846 847 847 848 849 849 850 851 851 852 852 853 853 854 854 855 855 856 856 857 857 858 858 859 859 859 860 860 861 861 860 861 860 861 862 862 863 863 863 863 863 863 862 862 861 860 859 859 858 857 856
809 810 812 812 813 814 815 817 818 819 821 823 824 825 826 828 829 830 831 832 833 834 835 836 836 837 837 838 838 839 840 842 843 844 845 845 846 846 847 848 849 850 850 851 851 852 852 853 853 854 854 855 856 857 857 858 858 859 859 860 861 861 861 861 860 861 860 860 861 861 861 862 862 862 862 862 861 861 860 860 859 858 857 857 855
809 810 811 812 813 814 815 816 817 819 821 823 824 825 826 827 828 829 830 831 832 833 834 835 835 835 836 837 837 838 839 840 841 842 843 843 844 844 845 847 847 848 849 849 850 850 851 852 852 852 853 853 855 856 856 857 857 858 858 860 861 861 860 860 860 860 860 860 860 860 860 860 860 861 861 861 860 860 860 860 859 857 856 855 854
809 810 811 812 813 813 815 816 817 818 820 821 823 824 825 826 827 828 829 830 831 832 833 833 834 834 834 835 836 837 837 838 839 840 841 841 842 842 843 845 845 846 847 848 848 849 849 850 851 851 851 852 853 854 854 855 856 857 857 858 860 860 860 860 859 859 858 858 858 858 858 857 857 858 859 860 860 860 860 860 858 857 856 854 852
810 811 811 812 813 814 815 816 816 818 819 819 821 823 824 825 826 827 827 829 830 831 831 832 832 833 833 834 834 835 836 836 837 838 838 839 840 840 841 843 843 844 845 846 847 847 848 849 849 849 850 850 851 852 853 854 855 856 857 857 858 858 858 859 859 858 857 856 856 856 856 855 855 858 859 859 860 860 859 859 857 856 855 852 851
811 812 812 813 814 814 815 816 817 818 818 819 820 821 823 823 824 825 826 828 829 830 830 830 831 832 832 833 833 833 834 834 834 835 836 836 837 838 840 841 841 842 843 844 845 845 846 847 847 848 848 848 849 850 851 852 853 854 855 856 856 857 857 857 858 858 857 856 855 856 856 855 856 858 858 858 859 859 858 858 857 855 854 852 850
812 812 813 813 814 815 816 816 817 818 818 819 819 820 821 821 823 824 825 826 828 828 829 829 830 830 831 832 832 832 833 832 833 834 834 834 836 837 838 839 840 841 841 842 843 844 844 845 846 846 847 847 847 848 849 849 850 851 852 853 854 855 855 856 856 857 857 856 855 856 856 856 857 858 858 858 858 858 857 857 856 854 853 851 849
813 813 813 814 814 815 816 816 817 817 817 818 819 819 820 820 822 823 823 825 826 827 828 828 829 829 830 831 831 831 832 831 832 833 833 834 835 835 837 838 838 839 840 841 842 842 843 844 844 845 845 845 846 847 847 848 848 849 850 851 852 853 854 855 855 855 856 856 856 856 856 856 857 857 857 857 857 857 856 856 855 854 853 851 849
814 814 814 815 815 815 816 816 817 817 817 818 818 819 820 820 821 822 823 824 824 824 825 826 827 828 829 830 831 831 831 831 832 832 833 833 834 835 836 837 837 838 839 840 841 842 842 843 843 844 844 844 845 846 847 847 847 848 848 849 851 852 853 854 854 855 855 856 856 856 856 856 856 856 856 856 856 856 856 855 854 853 851 849 847
816 816 816 816 816 816 816 816 817 817 817 818 818 818 819 820 820 821 822 823 823 823 824 826 827 828 828 828 830 831 832 831 832 832 832 833 834 834 835 836 837 838 838 839 840 841 842 842 843 843 843 844 844 844 845 847 847 847 847 848 850 851 852 852 853 854 854 854 855 855 855 855 855 855 855 855 855 855 854 854 852 851 849 847 844
817 817 817 817 817 817 817 817 817 817 817 818 818 818 818 819 819 820 820 822 822 822 825 826 827 827 827 828 829 830 831 831 831 832 832 833 833 834 835 836 836 837 838 839 840 840 841 842 842 843 843 843 843 843 844 845 846 847 847 848 849 850 850 851 852 852 853 853 853 853 853 853 853 853 853 853 853 853 853 852 850 849 847 844 842
817 818 818 818 818 817 817 817 817 817 817 817 817 817 818 818 818 818 819 821 821 821 824 825 826 826 827 828 828 829 830 830 831 831 831 832 833 834 835 835 836 837 837 838 839 839 840 840 841 842 842 842 842 842 842 843 845 846 846 847 848 849 849 850 850 851 852 852 852 852 852 852 851 851 851 851 851 852 852 851 849 847 845 842 839
818 818 818 818 818 818 818 817 817 817 817 816 816 817 817 817 818 818 819 820 820 821 822 824 825 825 826 827 828 828 829 829 830 830 831 831 832 833 834 834 835 836 837 837 838 838 838 840 840 841 841 841 841 842 842 843 844 845 846 847 847 848 848 849 849 850 850 850 850 850 850 849 849 849 849 849 849 850 850 849 847 846 844 841 838
819 819 819 819 819 818 818 818 818 817 817 816 816 816 816 817 817 818 818 819 820 821 822 822 823 824 825 826 826 827 828 829 829 830 830 831 831 832 832 833 834 835 836 837 838 838 838 839 840 840 841 841 841 842 842 843 844 844 845 845 846 847 848 848 849 849 849 849 848 848 848 848 847 847 847 846 846 846 846 846 845 844 842 840 838
820 820 820 819 819 818 818 818 818 817 817 817 817 817 817 817 817 817 817 818 819 820 821 821 822 823 823 824 825 826 827 828 828 829 829 830 830 831 831 832 833 834 835 836 837 838 838 839 839 840 840 841 841 841 842 842 843 844 844 844 845 846 847 847 847 848 848 848 847 847 847 846 846 846 845 844 844 843 843 844 844 843 841 839 837
821 820 820 819 819 818 818 818 817 817 817 817 817 817 817 817 817 817 817 817 817 818 819 820 821 822 822 823 824 824 825 826 827 828 828 829 830 830 831 831 832 833 834 835 836 837 838 838 838 839 840 840 841 841 841 842 843 843 844 844 845 846 847 846 846 846 847 847 846 846 846 845 845 844 844 843 843 842 842 842 842 841 840 838 836
821 820 820 819 819 818 818 817 817 817 816 816 816 816 816 816 817 817 817 816 816 817 817 818 819 820 821 821 822 822 823 824 825 827 827 828 829 829 830 830 831 832 832 833 834 836 837 837 838 838 839 840 840 841 841 842 842 843 844 844 845 845 846 846 846 846 846 846 845 845 844 844 843 843 842 842 841 841 841 840 840 839 838 836 834
820 819 819 819 818 818 817 817 816 816 815 815 815 815 815 815 815 816 816 816 816 816 816 816 817 818 819 820 820 820 821 822 824 826 827 827 828 828 828 829 830 830 831 832 833 835 836 836 837 838 839 839 839 840 841 842 843 843 844 845 845 845 846 846 846 846 846 845 844 844 843 842 842 841 841 840 840 840 839 838 837 836 835 833 832
819 818 818 817 817 817 816 816 816 815 815 815 814 814 814 814 813 814 814 814 814 815 815 816 816 816 817 818 818 819 819 821 823 824 825 826 826 826 827 827 828 829 830 831 833 834 835 835 836 837 838 839 839 840 841 842 842 843 844 844 844 844 845 845 845 845 844 844 843 842 841 841 840 840 839 839 839 838 837 836 835 833 832 830 829
818 817 817 816 816 815 815 814 814 814 814 813 813 813 812 812 812 812 812 812 812 812 813 814 814 814 814 815 816 816 817 819 821 822 823 824 824 825 825 826 827 828 829 830 831 832 833 834 836 837 838 839 840 840 841 841 842 843 843 843 843 844 844 844 844 844 843 842 842 841 841 840 840 839 838 838 837 836 834 833 831 830 829 827 826
816 816 815 815 814 814 813 813 812 812 812 812 811 811 810 810 810 809 809 809 809 808 810 811 811 811 811 812 813 813 815 817 818 820 821 822 822 823 824 824 826 827 828 829 830 831 833 834 836 837 838 839 840 841 841 841 842 842 842 843 843 844 844 844 843 843 842 842 841 841 840 839 839 838 837 836 835 834 832 831 829 828 827 826 824
814 814 813 813 813 812 811 811 811 810 810 810 809 809 808 808 808 807 807 807 806 806 806 807 807 808 809 810 812 812 812 814 816 817 818 819 820 821 822 823 824 826 827 828 829 831 832 834 835 837 838 838 839 840 840 841 841 842 842 842 843 843 843 843 842 842 841 841 840 840 839 839 838 837 836 835 833 832 831 830 828 827 825 824 822
812 812 811 811 810 810 809 809 808 808 807 807 806 806 805 805 805 805 805 805 804 804 804 804 804 805 805 808 811 811 809 811 812 813 815 816 818 819 820 821 823 825 826 827 828 830 832 834 835 837 838 838 839 840 840 841 842 842 842 842 842 842 842 841 841 841 840 839 839 839 838 838 837 835 834 833 832 830 829 828 827 825 824 822 821
810 809 809 808 807 807 806 806 805 804 804 803 803 802 802 802 802 802 802 802 802 802 802 801 802 802 803 806 808 807 806 807 809 810 811 813 815 817 818 820 822 823 825 826 827 829 831 834 835 837 837 838 839 839 840 841 841 841 842 842 842 841 841 841 840 840 839 839 838 838 837 837 836 834 833 832 830 829 828 826 825 824 822 821 819
808 807 806 805 804 804 803 803 802 802 801 800 800 799 799 799 799 799 800 800 800 800 801 800 800 800 801 803 804 803 803 805 807 808 809 811 813 814 816 818 820 821 823 825 827 829 831 833 834 836 837 838 838 839 839 840 840 841 841 841 841 841 841 840 840 839 839 838 837 837 836 835 834 833 832 830 829 827 826 825 823 822 820 819 817
806 805 804 803 802 802 801 800 800 800 799 798 797 796 796 795 795 795 796 797 797 798 799 799 799 799 800 801 802 802 803 804 805 806 808 809 811 813 814 816 818 820 822 825 827 829 830 832 833 834 835 836 837 838 839 839 840 840 840 840 841 840 840 840 839 839 838 837 836 836 835 834 833 832 830 829 827 826 824 823 822 820 818 817 815
804 803 802 801 800 800 799 799 798 797 796 795 795 794 793 793 792 791 792 793 794 795 796 796 797 797 798 799 801 801 803 804 805 806 807 809 810 811 813 815 817 819 822 825 826 828 829 830 832 833 834 836 837 838 838 839 839 840 840 840 840 839 839 839 838 838 837 836 835 834 833 832 831 830 829 828 826 824 823 821 820 819 817 815 813
803 802 800 799 798 798 797 797 796 795 793 792 792 791 790 790 789 788 788 789 791 792 793 793 794 795 796 797 799 800 801 803 804 805 806 808 810 811 812 814 817 819 822 824 826 827 828 829 831 832 834 835 836 837 838 838 839 839 839 839 839 839 838 838 837 836 835 835 834 833 832 831 830 829 827 826 824 823 821 820 818 817 815 813 812
801 800 799 798 798 796 795 794 793 792 791 790 789 788 788 787 787 786 786 786 787 788 789 790 791 793 794 795 796 798 799 801 802 804 806 808 810 811 812 814 817 819 822 823 825 826 827 829 830 832 833 834 836 836 837 838 839 839 839 839 838 838 837 837 836 835 834 833 832 831 830 829 829 827 826 824 823 822 820 818 817 815 813 812 810
799 797 796 796 795 794 793 791 790 789 788 788 787 787 787 786 786 785 785 785 784 784 785 786 787 790 791 793 794 796 797 799 801 803 805 807 809 811 812 814 817 819 821 823 824 825 826 828 830 831 833 834 835 836 837 838 838 838 838 838 838 837 836 836 835 834 833 832 831 830 829 828 827 826 825 823 822 820 818 817 815 813 812 810 808
797 795 794 793 792 791 790 789 788 787 786 785 785 785 786 786 786 785 784 784 784 783 783 783 784 786 789 791 792 794 795 798 800 802 804 806 808 811 814 816 818 820 821 822 824 825 826 827 829 831 832 833 834 835 836 837 837 838 838 837 837 836 835 835 834 833 832 831 830 829 828 827 826 825 823 822 820 818 816 815 813 811 810 808 806
795 793 792 791 790 788 787 786 785 784 783 783 783 783 784 784 785 785 784 783 783 783 783 782 783 785 787 789 791 792 794 796 799 802 805 807 809 811 814 816 818 820 822 823 824 825 826 828 829 830 831 833 834 835 836 836 837 837 837 836 836 835 834 834 833 832 831 830 829 828 827 826 825 823 822 820 818 816 815 813 811 809 808 806 804
793 791 790 789 788 786 784 783 781 780 780 780 781 781 782 783 783 784 784 783 783 782 781 781 782 784 786 787 789 791 793 796 799 802 805 808 810 811 813 815 818 820 822 824 825 825 826 828 829 830 831 832 833 834 835 836 836 836 836 835 835 834 833 832 831 831 830 829 828 827 826 825 823 822 820 819 817 815 813 811 809 807 805 803 802
792 790 789 787 785 784 782 780 779 777 776 776 777 778 779 781 781 782 783 783 783 782 780 779 780 782 783 785 787 790 793 795 798 802 804 807 809 811 813 815 817 819 821 823 825 826 827 828 829 830 831 832 833 834 835 835 835 835 835 834 834 833 832 832 831 830 830 828 827 826 825 824 822 821 819 817 815 813 811 809 808 805 803 802 800
791 790 788 786 784 782 780 779 777 775 774 773 774 775 777 778 779 780 781 782 782 781 779 778 779 780 782 783 785 788 791 794 797 800 803 806 809 811 812 814 816 818 820 823 824 826 827 828 829 831 831 832 833 834 834 835 835 834 834 834 833 833 832 831 831 830 829 828 827 826 825 823 822 820 818 816 814 812 810 808 806 804 802 800 798
791 789 788 786 784 781 780 778 777 775 774 773 773 774 775 776 778 779 780 781 780 779 778 777 778 780 782 783 784 787 790 793 796 799 801 804 807 810 812 814 816 818 821 823 825 826 827 828 830 831 832 833 833 834 834 834 834 834 834 833 833 832 832 831 830 829 828 827 826 825 824 822 821 819 817 814 812 810 808 806 804 802 800 798 796
792 790 789 787 784 782 780 779 777 776 775 774 774 774 775 776 777 778 779 779 778 778 777 778 780 782 783 784 786 788 790 793 796 799 801 804 807 809 812 815 817 819 822 824 825 826 827 828 830 831 832 833 833 833 834 834 834 834 834 833 833 832 831 830 830 829 827 826 825 824 823 821 819 817 815 813 811 809 807 805 803 801 799 797 795
792 791 789 787 786 784 782 780 779 778 776 776 775 775 776 776 777 778 779 779 778 778 779 781 783 784 785 786 788 789 792 795 798 801 803 805 807 810 813 816 818 820 823 825 826 827 828 829 830 831 832 833 833 833 834 834 834 834 834 833 832 831 830 830 829 828 826 825 824 823 821 819 818 816 814 812 810 808 806 804 802 800 798 796 794
793 792 790 789 787 786 784 783 781 780 779 778 778 777 778 778 778 779 780 780 780 781 783 784 784 786 787 790 791 792 795 797 800 803 805 808 810 812 815 817 819 822 824 825 826 827 828 829 831 832 832 832 832 833 833 833 833 834 833 832 832 831 830 829 828 826 825 824 822 821 820 818 817 815 813 811 809 807 805 803 801 799 797 795 793
794 793 792 790 789 787 786 785 784 783 782 781 780 780 780 780 780 781 781 782 783 784 785 786 787 788 790 793 794 795 797 799 801 804 807 810 812 814 816 818 820 823 824 825 827 827 829 830 831 832 832 832 832 832 833 833 833 833 832 831 831 830 829 827 826 825 823 822 821 820 819 817 816 814 812 810 808 806 804 802 800 798 796 794 792
797 795 794 793 792 790 789 788 786 785 784 784 783 783 783 783 783 783 784 784 785 786 787 789 790 791 793 795 796 797 800 802 804 807 810 812 815 816 818 820 822 824 825 826 826 827 828 830 831 831 832 832 832 832 832 832 832 832 831 830 830 829 828 826 825 824 822 821 820 819 818 816 815 813 811 810 808 806 804 801 799 797 795 793 791
798 798 796 795 794 793 792 791 790 789 788 787 787 786 786 786 787 787 787 787 787 788 789 791 792 793 795 796 798 800 803 805 807 809 812 815 816 818 819 821 823 824 826 826 827 828 829 829 830 831 831 831 831 832 832 832 832 831 831 830 829 828 827 826 824 823 822 821 819 818 817 815 813 812 811 809 807 805 803 801 798 796 794 792 791
800 799 799 798 797 796 795 794 793 792 792 791 791 791 791 791 791 791 791 792 792 792 793 794 795 797 798 799 801 804 806 808 810 812 815 816 818 819 821 822 824 825 826 826 827 828 829 829 830 831 831 831 831 832 832 831 831 830 830 829 828 827 826 825 824 822 821 820 819 817 816 814 813 812 810 809 807 804 802 800 798 796 794 792 790
802 801 801 800 800 799 798 797 797 796 796 796 795 795 795 795 795 795 796 796 797 797 798 798 799 801 802 804 806 808 809 811 813 815 817 819 820 821 822 823 824 826 826 827 827 828 828 829 830 830 830 831 831 831 831 831 830 829 829 828 827 826 826 824 823 822 821 819 818 817 815 814 813 812 810 808 806 804 802 800 798 796 794 792 790
804 803 803 802 802 801 801 800 800 799 799 799 799 799 799 799 800 800 800 800 801 802 802 803 804 805 807 808 810 811 813 815 816 818 819 821 822 823 823 824 825 826 827 828 828 829 829 830 830 830 830 830 831 831 830 830 829 828 828 827 826 825 825 824 822 821 820 819 818 816 815 813 813 812 810 808 806 804 802 800 798 796 794 792 790
806 805 804 804 803 803 803 802 802 802 802 802 802 802 802 803 803 803 804 804 805 805 806 807 808 809 811 812 813 815 816 818 819 820 821 822 823 824 824 825 825 826 827 828 828 829 829 830 830 830 830 830 830 830 830 829 828 827 826 826 825 824 824 823 822 820 819 818 817 816 815 813 813 811 810 808 806 804 802 800 798 796 794 792 790